AAL331 KMIA-MSLP

Flight info

Callsign AAL331
Flight time 2h 2m
Altitude 38000
Route MAYNR3 FUNDI UM335 ALVEK UZ637 PABEL UL471 NAGEL NAGEL2
Aircraft B772/H-SDE2E3FGHIJ5LORVWXY/LB1D1

Departure

Time 2026-05-05 21:24
Airport Miami International Airport (KMIA)

Arrival

Time 2026-05-05 23:26
Airport El Salvador International Airport Saint Óscar Arnulfo Romero y Galdámez (MSLP)
Time Latitude Longitude Altitude Speed Heading
2026-05-05 21:04 25.79797 -80.27715 22 ft 0 kts 178°
2026-05-05 21:14 25.79798 -80.27715 20 ft 1 kts 178°
2026-05-05 21:15 25.79806 -80.27715 24 ft 1 kts 178°
2026-05-05 21:15 25.79814 -80.27716 24 ft 1 kts 178°
2026-05-05 21:15 25.79823 -80.27716 22 ft 1 kts 178°
2026-05-05 21:15 25.79831 -80.27716 22 ft 1 kts 178°
2026-05-05 21:16 25.79840 -80.27717 23 ft 2 kts 181°
2026-05-05 21:16 25.79852 -80.27716 24 ft 2 kts 191°
2026-05-05 21:16 25.79864 -80.27713 22 ft 2 kts 202°
2026-05-05 21:16 25.79876 -80.27706 24 ft 2 kts 215°
2026-05-05 21:17 25.79887 -80.27696 24 ft 2 kts 228°
2026-05-05 21:17 25.79897 -80.27680 24 ft 3 kts 246°
2026-05-05 21:17 25.79898 -80.27678 24 ft 0 kts 251°
2026-05-05 21:19 25.79895 -80.27703 25 ft 12 kts 266°
2026-05-05 21:20 25.79956 -80.27828 19 ft 21 kts 311°
2026-05-05 21:20 25.80049 -80.27935 17 ft 15 kts 289°
2026-05-05 21:20 25.80047 -80.28084 16 ft 31 kts 268°
2026-05-05 21:20 25.80032 -80.28411 19 ft 54 kts 266°
2026-05-05 21:21 25.80009 -80.28952 28 ft 48 kts 268°
2026-05-05 21:21 25.80000 -80.29196 26 ft 45 kts 266°
2026-05-05 21:21 25.79985 -80.29539 18 ft 43 kts 268°
2026-05-05 21:21 25.79978 -80.29728 20 ft 0 kts 268°
2026-05-05 21:22 25.79977 -80.29733 19 ft 4 kts 268°
2026-05-05 21:22 25.79975 -80.29805 17 ft 11 kts 268°
2026-05-05 21:22 25.79972 -80.29887 16 ft 11 kts 268°
2026-05-05 21:23 25.79977 -80.29955 16 ft 9 kts 282°
2026-05-05 21:23 25.80002 -80.30039 16 ft 17 kts 292°
2026-05-05 21:23 25.80071 -80.30093 18 ft 5 kts 27°
2026-05-05 21:23 25.80075 -80.30041 17 ft 19 kts 88°
2026-05-05 21:24 25.80090 -80.29665 18 ft 94 kts 87°
2026-05-05 21:24 25.80137 -80.28591 106 ft 180 kts 87°
2026-05-05 21:24 25.80180 -80.27026 932 ft 215 kts 88°
2026-05-05 21:24 25.80019 -80.25367 2328 ft 228 kts 104°
2026-05-05 21:25 25.79347 -80.23670 3513 ft 253 kts 123°
2026-05-05 21:25 25.78140 -80.22199 5012 ft 261 kts 144°
2026-05-05 21:25 25.76602 -80.21174 6620 ft 266 kts 154°
2026-05-05 21:25 25.74885 -80.20178 7652 ft 293 kts 155°
2026-05-05 21:26 25.73012 -80.19291 9108 ft 295 kts 166°
2026-05-05 21:26 25.70961 -80.18834 10355 ft 311 kts 179°
2026-05-05 21:26 25.68666 -80.18842 10783 ft 350 kts 187°
2026-05-05 21:26 25.66155 -80.19102 10505 ft 373 kts 190°
2026-05-05 21:27 25.63537 -80.19497 9875 ft 381 kts 192°
2026-05-05 21:27 25.61023 -80.20229 8819 ft 371 kts 209°
2026-05-05 21:27 25.58879 -80.21697 8023 ft 359 kts 215°
2026-05-05 21:27 25.56789 -80.23109 7775 ft 351 kts 212°
2026-05-05 21:28 25.54683 -80.24439 8038 ft 350 kts 212°
2026-05-05 21:28 25.52549 -80.25771 9063 ft 353 kts 212°
2026-05-05 21:28 25.50408 -80.27108 10168 ft 354 kts 212°
2026-05-05 21:28 25.48255 -80.28458 11075 ft 358 kts 212°
2026-05-05 21:29 25.46066 -80.29834 11942 ft 366 kts 213°
2026-05-05 21:29 25.43834 -80.31240 12832 ft 373 kts 213°
2026-05-05 21:29 25.41564 -80.32673 13679 ft 379 kts 213°
2026-05-05 21:29 25.39257 -80.34128 14454 ft 384 kts 213°
2026-05-05 21:30 25.36947 -80.35584 15220 ft 390 kts 213°
2026-05-05 21:30 25.34569 -80.37081 16027 ft 396 kts 213°
2026-05-05 21:30 25.32157 -80.38599 16851 ft 402 kts 213°
2026-05-05 21:30 25.29705 -80.40140 17666 ft 408 kts 213°
2026-05-05 21:31 25.27199 -80.41682 18414 ft 416 kts 212°
2026-05-05 21:31 25.24639 -80.43229 19116 ft 422 kts 212°
2026-05-05 21:31 25.22051 -80.44781 19919 ft 425 kts 212°
2026-05-05 21:31 25.19439 -80.46345 20731 ft 428 kts 213°
2026-05-05 21:32 25.16816 -80.47917 21511 ft 432 kts 213°
2026-05-05 21:32 25.14199 -80.49489 22246 ft 436 kts 213°
2026-05-05 21:32 25.11518 -80.51102 22969 ft 441 kts 213°
2026-05-05 21:32 25.08812 -80.52731 23676 ft 445 kts 213°
2026-05-05 21:33 25.06081 -80.54374 24245 ft 449 kts 213°
2026-05-05 21:33 25.03321 -80.56035 24770 ft 454 kts 214°
2026-05-05 21:33 25.00535 -80.57711 25279 ft 458 kts 213°
2026-05-05 21:33 24.97724 -80.59400 25816 ft 462 kts 213°
2026-05-05 21:34 24.94890 -80.61103 26328 ft 466 kts 213°
2026-05-05 21:34 24.92028 -80.62821 26829 ft 470 kts 213°
2026-05-05 21:34 24.89186 -80.64525 27306 ft 473 kts 213°
2026-05-05 21:34 24.86284 -80.66266 27771 ft 477 kts 213°
2026-05-05 21:35 24.83359 -80.68018 28225 ft 480 kts 213°
2026-05-05 21:35 24.80412 -80.69784 28663 ft 484 kts 213°
2026-05-05 21:35 24.77445 -80.71560 29093 ft 487 kts 213°
2026-05-05 21:35 24.74458 -80.73347 29504 ft 490 kts 213°
2026-05-05 21:36 24.71452 -80.75145 29881 ft 493 kts 213°
2026-05-05 21:36 24.68429 -80.76952 30193 ft 497 kts 213°
2026-05-05 21:36 24.65383 -80.78772 30483 ft 500 kts 213°
2026-05-05 21:36 24.62359 -80.80577 30745 ft 503 kts 213°
2026-05-05 21:37 24.59279 -80.82414 31009 ft 505 kts 213°
2026-05-05 21:37 24.56184 -80.84259 31256 ft 507 kts 213°
2026-05-05 21:37 24.53073 -80.86113 31485 ft 510 kts 213°
2026-05-05 21:37 24.49945 -80.87977 31719 ft 512 kts 213°
2026-05-05 21:38 24.46816 -80.89839 32000 ft 512 kts 213°
2026-05-05 21:38 24.43689 -80.91697 32330 ft 511 kts 213°
2026-05-05 21:38 24.40606 -80.93529 32677 ft 510 kts 214°
2026-05-05 21:38 24.37484 -80.95384 32999 ft 510 kts 214°
2026-05-05 21:39 24.34365 -80.97237 33268 ft 511 kts 214°
2026-05-05 21:39 24.31237 -80.99094 33561 ft 511 kts 214°
2026-05-05 21:39 24.28111 -81.00949 33865 ft 511 kts 214°
2026-05-05 21:39 24.24982 -81.02805 34164 ft 511 kts 214°
2026-05-05 21:40 24.21855 -81.04657 34460 ft 511 kts 214°
2026-05-05 21:40 24.18734 -81.06506 34770 ft 510 kts 214°
2026-05-05 21:40 24.15615 -81.08352 35093 ft 509 kts 214°
2026-05-05 21:40 24.12505 -81.10192 35407 ft 508 kts 214°
2026-05-05 21:41 24.09437 -81.12006 35718 ft 508 kts 214°
2026-05-05 21:41 24.06327 -81.13844 36018 ft 508 kts 214°
2026-05-05 21:41 24.03221 -81.15679 36324 ft 507 kts 214°
2026-05-05 21:41 24.00118 -81.17511 36630 ft 506 kts 214°
2026-05-05 21:42 23.97021 -81.19338 36945 ft 506 kts 214°
2026-05-05 21:42 23.93923 -81.21165 37250 ft 505 kts 214°
2026-05-05 21:42 23.90835 -81.22985 37547 ft 505 kts 214°
2026-05-05 21:42 23.87755 -81.24799 37843 ft 504 kts 215°
2026-05-05 21:43 23.84663 -81.26621 37957 ft 507 kts 215°
2026-05-05 21:43 23.81555 -81.28452 37986 ft 508 kts 214°
2026-05-05 21:43 23.75391 -81.32074 38002 ft 504 kts 214°
2026-05-05 21:44 23.69220 -81.35696 38012 ft 504 kts 214°
2026-05-05 21:44 23.62982 -81.39363 38019 ft 514 kts 214°
2026-05-05 21:45 23.56626 -81.43093 38019 ft 523 kts 214°
2026-05-05 21:45 23.50338 -81.47074 37986 ft 519 kts 221°
2026-05-05 21:46 23.44675 -81.51832 38013 ft 518 kts 224°
2026-05-05 21:46 23.38993 -81.56665 38006 ft 519 kts 224°
2026-05-05 21:47 23.33276 -81.61467 38004 ft 519 kts 223°
2026-05-05 21:47 23.27542 -81.66243 38003 ft 518 kts 223°
2026-05-05 21:48 23.21868 -81.70958 38008 ft 516 kts 223°
2026-05-05 21:48 23.16162 -81.75698 38001 ft 515 kts 223°
2026-05-05 21:49 23.10471 -81.80422 38009 ft 515 kts 223°
2026-05-05 21:49 23.04784 -81.85139 38011 ft 514 kts 223°
2026-05-05 21:50 22.99095 -81.89853 38005 ft 515 kts 223°
2026-05-05 21:50 22.93440 -81.94533 38005 ft 515 kts 223°
2026-05-05 21:51 22.87746 -81.99240 37996 ft 515 kts 223°
2026-05-05 21:51 22.82045 -82.03948 38006 ft 515 kts 223°
2026-05-05 21:52 22.73482 -82.11009 38000 ft 516 kts 223°
2026-05-05 21:53 22.67807 -82.15682 37997 ft 516 kts 223°
2026-05-05 21:53 22.62089 -82.20386 37997 ft 516 kts 223°
2026-05-05 21:54 22.56370 -82.25086 37989 ft 516 kts 222°
2026-05-05 21:54 22.50641 -82.29789 37996 ft 517 kts 222°
2026-05-05 21:55 22.44915 -82.34483 37994 ft 517 kts 222°
2026-05-05 21:55 22.39217 -82.39151 37996 ft 518 kts 222°
2026-05-05 21:56 22.33470 -82.43853 37993 ft 518 kts 222°
2026-05-05 21:56 22.27728 -82.48547 37976 ft 518 kts 222°
2026-05-05 21:57 22.21985 -82.53236 37995 ft 518 kts 222°
2026-05-05 21:57 22.16276 -82.57893 37995 ft 518 kts 222°
2026-05-05 21:58 22.10525 -82.62578 37994 ft 518 kts 222°
2026-05-05 21:58 22.04772 -82.67262 37995 ft 518 kts 222°
2026-05-05 21:59 21.99016 -82.71942 37994 ft 518 kts 221°
2026-05-05 21:59 21.93257 -82.76620 37989 ft 519 kts 221°
2026-05-05 22:00 21.87534 -82.81264 37997 ft 519 kts 221°
2026-05-05 22:00 21.81770 -82.85936 37998 ft 519 kts 221°
2026-05-05 22:01 21.76003 -82.90606 37999 ft 519 kts 221°
2026-05-05 22:01 21.70231 -82.95274 37993 ft 519 kts 221°
2026-05-05 22:02 21.64499 -82.99907 37991 ft 519 kts 221°
2026-05-05 22:02 21.58726 -83.04567 37989 ft 519 kts 221°
2026-05-05 22:03 21.52956 -83.09220 37993 ft 519 kts 221°
2026-05-05 22:03 21.47185 -83.13870 37991 ft 519 kts 221°
2026-05-05 22:04 21.41451 -83.18485 37990 ft 518 kts 221°
2026-05-05 22:04 21.35680 -83.23125 37991 ft 518 kts 221°
2026-05-05 22:05 21.29903 -83.27765 37992 ft 518 kts 221°
2026-05-05 22:05 21.24130 -83.32397 37989 ft 518 kts 221°
2026-05-05 22:06 21.18396 -83.36994 37991 ft 518 kts 221°
2026-05-05 22:06 21.12622 -83.41617 37993 ft 518 kts 221°
2026-05-05 22:07 21.06848 -83.46237 37991 ft 518 kts 221°
2026-05-05 22:07 21.01071 -83.50854 37974 ft 518 kts 221°
2026-05-05 22:08 20.95297 -83.55464 38003 ft 517 kts 220°
2026-05-05 22:08 20.89568 -83.60033 37979 ft 517 kts 220°
2026-05-05 22:09 20.83807 -83.64625 37979 ft 516 kts 220°
2026-05-05 22:09 20.78044 -83.69213 37980 ft 516 kts 220°
2026-05-05 22:10 20.72290 -83.73789 37985 ft 516 kts 220°
2026-05-05 22:10 20.66574 -83.78331 37988 ft 515 kts 220°
2026-05-05 22:11 20.60820 -83.82898 37976 ft 516 kts 220°
2026-05-05 22:11 20.55062 -83.87466 37984 ft 516 kts 220°
2026-05-05 22:12 20.49291 -83.92027 37974 ft 516 kts 220°
2026-05-05 22:12 20.43529 -83.96585 37988 ft 516 kts 219°
2026-05-05 22:13 20.37783 -84.01077 37989 ft 516 kts 219°
2026-05-05 22:13 20.31995 -84.05587 37982 ft 515 kts 219°
2026-05-05 22:14 20.26210 -84.10101 37984 ft 516 kts 219°
2026-05-05 22:14 20.20425 -84.14618 37977 ft 516 kts 219°
2026-05-05 22:15 20.14675 -84.19105 37976 ft 516 kts 219°
2026-05-05 22:15 20.08883 -84.23619 37978 ft 516 kts 219°
2026-05-05 22:16 20.03083 -84.28136 37978 ft 516 kts 219°
2026-05-05 22:16 19.97286 -84.32645 37975 ft 516 kts 219°
2026-05-05 22:17 19.91490 -84.37150 37970 ft 516 kts 219°
2026-05-05 22:17 19.85731 -84.41621 37979 ft 516 kts 219°
2026-05-05 22:18 19.79933 -84.46119 37972 ft 516 kts 219°
2026-05-05 22:18 19.74134 -84.50614 37979 ft 516 kts 219°
2026-05-05 22:19 19.68334 -84.55105 37972 ft 516 kts 218°
2026-05-05 22:19 19.62527 -84.59597 37978 ft 516 kts 218°
2026-05-05 22:20 19.56763 -84.64053 37975 ft 516 kts 218°
2026-05-05 22:20 19.50958 -84.68535 37965 ft 516 kts 218°
2026-05-05 22:21 19.45151 -84.73016 37964 ft 516 kts 218°
2026-05-05 22:21 19.39344 -84.77492 37962 ft 516 kts 218°
2026-05-05 22:22 19.33537 -84.81965 37960 ft 516 kts 218°
2026-05-05 22:22 19.27768 -84.86403 37971 ft 516 kts 218°
2026-05-05 22:23 19.21960 -84.90868 37970 ft 516 kts 218°
2026-05-05 22:23 19.16150 -84.95331 37962 ft 516 kts 218°
2026-05-05 22:24 19.10333 -84.99795 37962 ft 516 kts 218°
2026-05-05 22:24 19.04559 -85.04221 37955 ft 516 kts 218°
2026-05-05 22:25 18.98746 -85.08674 37965 ft 516 kts 218°
2026-05-05 22:25 18.92934 -85.13122 37964 ft 516 kts 218°
2026-05-05 22:26 18.87121 -85.17567 37967 ft 516 kts 218°
2026-05-05 22:26 18.81307 -85.22010 37965 ft 516 kts 218°
2026-05-05 22:27 18.75530 -85.26419 37960 ft 516 kts 218°
2026-05-05 22:27 18.69709 -85.30859 37955 ft 516 kts 217°
2026-05-05 22:28 18.63896 -85.35289 37958 ft 515 kts 217°
2026-05-05 22:28 18.58122 -85.39685 37956 ft 515 kts 217°
2026-05-05 22:29 18.52310 -85.44106 37957 ft 515 kts 217°
2026-05-05 22:29 18.46503 -85.48520 37954 ft 515 kts 217°
2026-05-05 22:30 18.40686 -85.52937 37953 ft 515 kts 217°
2026-05-05 22:30 18.34913 -85.57318 37942 ft 515 kts 217°
2026-05-05 22:31 18.29097 -85.61728 37949 ft 516 kts 217°
2026-05-05 22:31 18.23274 -85.66139 37951 ft 516 kts 217°
2026-05-05 22:32 18.17443 -85.70552 37953 ft 517 kts 217°
2026-05-05 22:32 18.11600 -85.74971 37951 ft 517 kts 217°
2026-05-05 22:33 18.05798 -85.79355 37951 ft 517 kts 217°
2026-05-05 22:33 17.99953 -85.83768 37949 ft 517 kts 217°
2026-05-05 22:34 17.94107 -85.88178 37941 ft 517 kts 217°
2026-05-05 22:34 17.88261 -85.92585 37944 ft 517 kts 217°
2026-05-05 22:35 17.82414 -85.96988 37941 ft 517 kts 217°
2026-05-05 22:35 17.76607 -86.01358 37943 ft 517 kts 217°
2026-05-05 22:36 17.70760 -86.05755 37944 ft 517 kts 217°
2026-05-05 22:36 17.64907 -86.10152 37943 ft 517 kts 217°
2026-05-05 22:37 17.59059 -86.14542 37941 ft 517 kts 217°
2026-05-05 22:37 17.53249 -86.18901 37938 ft 517 kts 217°
2026-05-05 22:38 17.47399 -86.23286 37937 ft 517 kts 217°
2026-05-05 22:38 17.41548 -86.27669 37936 ft 517 kts 217°
2026-05-05 22:39 17.35697 -86.32049 37935 ft 517 kts 217°
2026-05-05 22:39 17.29847 -86.36426 37932 ft 517 kts 217°
2026-05-05 22:40 17.23999 -86.40802 37933 ft 517 kts 216°
2026-05-05 22:40 17.18180 -86.45143 37931 ft 517 kts 216°
2026-05-05 22:41 17.12322 -86.49500 37929 ft 517 kts 216°
2026-05-05 22:41 17.06465 -86.53857 37929 ft 517 kts 216°
2026-05-05 22:42 17.00610 -86.58216 37917 ft 517 kts 217°
2026-05-05 22:42 16.94799 -86.62541 37924 ft 516 kts 217°
2026-05-05 22:43 16.88953 -86.66888 37919 ft 516 kts 217°
2026-05-05 22:43 16.83111 -86.71229 37921 ft 515 kts 217°
2026-05-05 22:44 16.77266 -86.75569 37922 ft 515 kts 217°
2026-05-05 22:44 16.71427 -86.79901 37918 ft 515 kts 216°
2026-05-05 22:45 16.65626 -86.84200 37918 ft 515 kts 217°
2026-05-05 22:45 16.59790 -86.88523 37907 ft 514 kts 217°
2026-05-05 22:46 16.53957 -86.92841 37928 ft 514 kts 217°
2026-05-05 22:46 16.48127 -86.97153 37923 ft 514 kts 217°
2026-05-05 22:47 16.42301 -87.01458 37921 ft 513 kts 217°
2026-05-05 22:47 16.36516 -87.05730 37909 ft 513 kts 217°
2026-05-05 22:48 16.30695 -87.10027 37919 ft 512 kts 217°
2026-05-05 22:48 16.24886 -87.14310 37894 ft 510 kts 217°
2026-05-05 22:49 16.19104 -87.18571 37910 ft 508 kts 217°
2026-05-05 22:49 16.13340 -87.22817 37915 ft 507 kts 217°
2026-05-05 22:50 16.07623 -87.27025 37909 ft 506 kts 217°
2026-05-05 22:50 16.01873 -87.31256 37896 ft 506 kts 217°
2026-05-05 22:51 15.96124 -87.35485 37911 ft 506 kts 217°
2026-05-05 22:51 15.90381 -87.39704 37911 ft 505 kts 217°
2026-05-05 22:52 15.84696 -87.43904 37912 ft 505 kts 217°
2026-05-05 22:52 15.78993 -87.48145 37914 ft 504 kts 217°
2026-05-05 22:53 15.73295 -87.52385 37911 ft 504 kts 217°
2026-05-05 22:53 15.67588 -87.56624 37908 ft 504 kts 217°
2026-05-05 22:54 15.61920 -87.60831 37915 ft 505 kts 217°
2026-05-05 22:54 15.56211 -87.65064 37919 ft 504 kts 217°
2026-05-05 22:55 15.50503 -87.69293 37922 ft 504 kts 217°
2026-05-05 22:55 15.44798 -87.73518 37896 ft 504 kts 217°
2026-05-05 22:56 15.39095 -87.77737 37891 ft 503 kts 217°
2026-05-05 22:56 15.33433 -87.81925 37892 ft 503 kts 217°
2026-05-05 22:57 15.27728 -87.86140 37896 ft 503 kts 217°
2026-05-05 22:57 15.22033 -87.90346 37895 ft 503 kts 217°
2026-05-05 22:58 15.16325 -87.94558 37917 ft 503 kts 217°
2026-05-05 22:58 15.10658 -87.98737 37924 ft 504 kts 217°
2026-05-05 22:59 15.04950 -88.02945 37959 ft 504 kts 217°
2026-05-05 22:59 14.99277 -88.07121 37687 ft 486 kts 217°
2026-05-05 22:59 14.96592 -88.09092 37171 ft 461 kts 217°
2026-05-05 23:00 14.91515 -88.12821 35273 ft 441 kts 217°
2026-05-05 23:00 14.89052 -88.14635 34035 ft 441 kts 216°
2026-05-05 23:00 14.86546 -88.16482 32648 ft 443 kts 215°
2026-05-05 23:01 14.84052 -88.18319 31568 ft 437 kts 214°
2026-05-05 23:01 14.81607 -88.20118 30701 ft 426 kts 214°
2026-05-05 23:01 14.79224 -88.21872 29810 ft 416 kts 213°
2026-05-05 23:01 14.76888 -88.23588 28724 ft 408 kts 213°
2026-05-05 23:02 14.74590 -88.25274 27640 ft 402 kts 213°
2026-05-05 23:02 14.72322 -88.26939 26563 ft 398 kts 213°
2026-05-05 23:02 14.70080 -88.28584 25547 ft 393 kts 213°
2026-05-05 23:02 14.67867 -88.30207 24592 ft 388 kts 213°
2026-05-05 23:03 14.65712 -88.31789 23685 ft 383 kts 213°
2026-05-05 23:03 14.63559 -88.33368 22951 ft 371 kts 213°
2026-05-05 23:03 14.61538 -88.34852 22702 ft 346 kts 213°
2026-05-05 23:03 14.59626 -88.36256 22357 ft 329 kts 213°
2026-05-05 23:04 14.57762 -88.37620 22055 ft 335 kts 212°
2026-05-05 23:04 14.55803 -88.39049 21722 ft 355 kts 213°
2026-05-05 23:04 14.53737 -88.40559 21359 ft 371 kts 213°
2026-05-05 23:04 14.51648 -88.42090 20922 ft 363 kts 213°
2026-05-05 23:05 14.49642 -88.43562 20541 ft 343 kts 213°
2026-05-05 23:05 14.47772 -88.44935 20189 ft 327 kts 213°
2026-05-05 23:05 14.45955 -88.46267 19857 ft 316 kts 213°
2026-05-05 23:05 14.44150 -88.47587 19562 ft 326 kts 213°
2026-05-05 23:06 14.42188 -88.49015 19215 ft 361 kts 213°
2026-05-05 23:06 14.40099 -88.50542 18832 ft 372 kts 213°
2026-05-05 23:06 14.37990 -88.52088 18484 ft 371 kts 213°
2026-05-05 23:06 14.35900 -88.53621 18213 ft 365 kts 213°
2026-05-05 23:07 14.33871 -88.55110 18152 ft 353 kts 213°
2026-05-05 23:07 14.31897 -88.56555 18171 ft 353 kts 213°
2026-05-05 23:07 14.29816 -88.58072 18195 ft 381 kts 213°
2026-05-05 23:07 14.27568 -88.59710 18207 ft 410 kts 213°
2026-05-05 23:08 14.25155 -88.61432 18197 ft 428 kts 211°
2026-05-05 23:08 14.22584 -88.63001 18205 ft 431 kts 207°
2026-05-05 23:08 14.19945 -88.64465 18174 ft 430 kts 206°
2026-05-05 23:08 14.17304 -88.65906 18171 ft 429 kts 206°
2026-05-05 23:09 14.14678 -88.67357 18166 ft 428 kts 206°
2026-05-05 23:09 14.12067 -88.68828 18158 ft 428 kts 207°
2026-05-05 23:09 14.09502 -88.70292 18160 ft 427 kts 207°
2026-05-05 23:09 14.06909 -88.71780 18166 ft 427 kts 207°
2026-05-05 23:10 14.04317 -88.73267 18121 ft 427 kts 207°
2026-05-05 23:10 14.01724 -88.74751 18125 ft 426 kts 207°
2026-05-05 23:10 13.99130 -88.76229 18128 ft 426 kts 207°
2026-05-05 23:10 13.96529 -88.77702 18126 ft 427 kts 206°
2026-05-05 23:11 13.93923 -88.79169 18149 ft 427 kts 206°
2026-05-05 23:11 13.91297 -88.80520 17730 ft 412 kts 200°
2026-05-05 23:11 13.88654 -88.81406 16602 ft 390 kts 191°
2026-05-05 23:11 13.86031 -88.81987 15210 ft 383 kts 188°
2026-05-05 23:12 13.83495 -88.82456 14370 ft 365 kts 187°
2026-05-05 23:12 13.81072 -88.82858 13786 ft 341 kts 186°
2026-05-05 23:12 13.78790 -88.83057 13093 ft 320 kts 173°
2026-05-05 23:12 13.76664 -88.82612 12229 ft 308 kts 160°
2026-05-05 23:13 13.74650 -88.81936 11414 ft 302 kts 158°
2026-05-05 23:13 13.72723 -88.81248 10981 ft 284 kts 158°
2026-05-05 23:13 13.70949 -88.80583 10762 ft 258 kts 150°
2026-05-05 23:13 13.69651 -88.79511 10515 ft 228 kts 118°
2026-05-05 23:14 13.69178 -88.78067 10156 ft 206 kts 85°
2026-05-05 23:14 13.69423 -88.76693 9684 ft 195 kts 72°
2026-05-05 23:14 13.69665 -88.75327 8987 ft 198 kts 92°
2026-05-05 23:14 13.69122 -88.74026 8371 ft 204 kts 128°
2026-05-05 23:15 13.67893 -88.73274 7777 ft 211 kts 159°
2026-05-05 23:15 13.66474 -88.72924 7285 ft 209 kts 168°
2026-05-05 23:15 13.65044 -88.73089 6739 ft 211 kts 202°
2026-05-05 23:15 13.63947 -88.74066 6154 ft 212 kts 238°
2026-05-05 23:16 13.63390 -88.75451 5653 ft 207 kts 251°
2026-05-05 23:16 13.63144 -88.76897 5220 ft 210 kts 274°
2026-05-05 23:16 13.63308 -88.78381 5124 ft 212 kts 274°
2026-05-05 23:16 13.63383 -88.79864 5063 ft 205 kts 272°
2026-05-05 23:17 13.63446 -88.81335 5066 ft 207 kts 272°
2026-05-05 23:17 13.63509 -88.82823 5065 ft 208 kts 272°
2026-05-05 23:17 13.63572 -88.84295 5052 ft 204 kts 272°
2026-05-05 23:17 13.63632 -88.85751 5058 ft 205 kts 272°
2026-05-05 23:18 13.63685 -88.87213 5059 ft 205 kts 272°
2026-05-05 23:18 13.63704 -88.88672 5053 ft 203 kts 263°
2026-05-05 23:18 13.63164 -88.89937 5035 ft 195 kts 225°
2026-05-05 23:18 13.62005 -88.90551 5030 ft 189 kts 184°
2026-05-05 23:19 13.60712 -88.90382 5041 ft 190 kts 163°
2026-05-05 23:19 13.59431 -88.89994 5054 ft 193 kts 160°
2026-05-05 23:19 13.58169 -88.89560 4948 ft 189 kts 159°
2026-05-05 23:19 13.56939 -88.89141 4782 ft 187 kts 159°
2026-05-05 23:20 13.55721 -88.88686 4590 ft 186 kts 156°
2026-05-05 23:20 13.54542 -88.88209 4283 ft 180 kts 156°
2026-05-05 23:20 13.53394 -88.87728 3824 ft 177 kts 156°
2026-05-05 23:20 13.52238 -88.87303 3605 ft 181 kts 171°
2026-05-05 23:21 13.51052 -88.87586 3520 ft 177 kts 213°
2026-05-05 23:21 13.50358 -88.88557 3425 ft 162 kts 242°
2026-05-05 23:21 13.49886 -88.89540 3262 ft 146 kts 240°
2026-05-05 23:21 13.49497 -88.90455 2946 ft 135 kts 242°
2026-05-05 23:22 13.49157 -88.91336 2520 ft 123 kts 248°
2026-05-05 23:22 13.48833 -88.92226 2396 ft 136 kts 249°
2026-05-05 23:22 13.48513 -88.93122 2224 ft 133 kts 249°
2026-05-05 23:22 13.48195 -88.94019 2062 ft 135 kts 249°
2026-05-05 23:23 13.47871 -88.94931 1884 ft 137 kts 248°
2026-05-05 23:23 13.47555 -88.95825 1732 ft 131 kts 248°
2026-05-05 23:23 13.47243 -88.96702 1553 ft 130 kts 247°
2026-05-05 23:23 13.46937 -88.97575 1385 ft 134 kts 250°
2026-05-05 23:24 13.46620 -88.98481 1196 ft 131 kts 249°
2026-05-05 23:24 13.46312 -88.99368 1062 ft 132 kts 250°
2026-05-05 23:24 13.45997 -89.00250 929 ft 131 kts 249°
2026-05-05 23:24 13.45682 -89.01129 767 ft 128 kts 248°
2026-05-05 23:25 13.45377 -89.01983 601 ft 126 kts 249°
2026-05-05 23:25 13.45091 -89.02829 404 ft 126 kts 244°
2026-05-05 23:25 13.44777 -89.03680 240 ft 128 kts 249°
2026-05-05 23:25 13.44477 -89.04522 112 ft 123 kts 247°
2026-05-05 23:26 13.44224 -89.05218 101 ft 79 kts 250°
2026-05-05 23:26 13.44079 -89.05611 96 ft 50 kts 249°
2026-05-05 23:26 13.44026 -89.05799 97 ft 18 kts 273°
2026-05-05 23:26 13.44035 -89.05828 94 ft 0 kts 298°
2026-05-05 23:27 13.44063 -89.05856 96 ft 19 kts 324°
2026-05-05 23:27 13.44197 -89.05906 97 ft 21 kts 339°
2026-05-05 23:27 13.44310 -89.05950 98 ft 10 kts 341°
2026-05-05 23:27 13.44317 -89.05953 98 ft 0 kts 341°